This is the latest recevied weather packets stored in our database for station/object N7CEE-2. If no packets are shown the sender has not sent any weather packets the latest 10 day(s).
| Time | Temp. | Humidity | Pressure | Rain* | Wind** | Luminosity | Snow |
|---|---|---|---|---|---|---|---|
| 1777410809 | 27.22° C | 19% | 1017.3 hPa | 0 mm | - | 873 W/m² | - |
| 1777410508 | 27.78° C | 20% | 1017.4 hPa | 0 mm | - | 856 W/m² | - |
| 1777410208 | 27.22° C | 19% | 1017.3 hPa | 0 mm | - | 861 W/m² | - |
| 1777409903 | 27.22° C | 19% | 1017.4 hPa | 0 mm | - | 896 W/m² | - |
| 1777409599 | 27.22° C | 20% | 1017.5 hPa | 0 mm | - | 903 W/m² | - |
| 1777409294 | 26.67° C | 20% | 1017.7 hPa | 0 mm | - | 914 W/m² | - |
| 1777408991 | 27.22° C | 20% | 1017.7 hPa | 0 mm | - | 925 W/m² | - |
| 1777408688 | 26.67° C | 20% | 1017.4 hPa | 0 mm | - | 929 W/m² | - |
| 1777408383 | 26.67° C | 20% | 1017.6 hPa | 0 mm | - | 932 W/m² | - |
| 1777408083 | 26.11° C | 21% | 1017.5 hPa | 0 mm | - | 940 W/m² | - |
| 1777407779 | 26.11° C | 20% | 1017.7 hPa | 0 mm | - | 949 W/m² | - |
| 1777407474 | 26.67° C | 20% | 1017.7 hPa | 0 mm | - | 955 W/m² | - |
| 1777407169 | 26.11° C | 20% | 1017.9 hPa | 0 mm | - | 960 W/m² | - |
| 1777406865 | 26.67° C | 20% | 1017.8 hPa | 0 mm | - | 963 W/m² | - |
| 1777406560 | 26.11° C | 21% | 1017.9 hPa | 0 mm | - | 967 W/m² | - |
| 1777406256 | 26.11° C | 21% | 1018 hPa | 0 mm | - | 970 W/m² | - |
| 1777405955 | 25.56° C | 21% | 1017.9 hPa | 0 mm | - | 970 W/m² | - |
| 1777405651 | 26.67° C | 22% | 1018.2 hPa | 0 mm | - | 972 W/m² | - |
| 1777405349 | 25.56° C | 23% | 1018.3 hPa | 0 mm | - | 973 W/m² | - |
| 1777405044 | 25° C | 23% | 1018.3 hPa | 0 mm | - | 974 W/m² | - |
| 1777404739 | 25° C | 22% | 1018.4 hPa | 0 mm | - | 977 W/m² | - |
| 1777404435 | 25.56° C | 21% | 1018.2 hPa | 0 mm | - | 977 W/m² | - |
| 1777404132 | 25.56° C | 23% | 1018.3 hPa | 0 mm | - | 979 W/m² | - |
| 1777403828 | 26.11° C | 21% | 1018.5 hPa | 0 mm | - | 977 W/m² | - |
| 1777403523 | 26.11° C | 22% | 1018.5 hPa | 0 mm | - | 977 W/m² | - |
* Rain latest hour (hover to see other rain measurements)
** Current wind speed in m/s (hover to see current wind gust speed)